Location: Newark
(46.3567°N, 6.1428°E)
Time: 16:19:50
(UTC+00:00)

BEESAT 2 - Visible Passes

Search period start: 18 October 2019 00:00
Search period end: 28 October 2019 00:00
Orbit: 495 x 534 km, 64.9° (Epoch: 17 October)

Date Brightness Start Highest point End Pass type
(mag) Time Alt. Az. Time Alt. Az. Time Alt. Az.
25 Oct ? 05:18:36 10° NNW 05:21:48 22° NE 05:24:59 10° E visible
26 Oct ? 05:02:29 10° NNW 05:05:42 22° NE 05:08:53 10° E visible
27 Oct ? 04:46:23 10° NNW 04:49:36 22° NE 04:52:48 10° E visible
